Berlin, NH

5:25 PM EDT on June 25, 2017 (GMT -0400)
Berlin Municipal

Weather History for KBML - February, 2012

Change the Weather History Date:

Sunday, February 5, 2012

  Actual Average Record
Temperature  
Mean Temperature 6 °F -  
Max Temperature 26 °F 26 °F 46 °F (2005)
Min Temperature -14 °F 1 °F -20 °F (2000)
Degree Days  
Heating Degree Days 59    
Moisture  
Dew Point 1 °F    
Average Humidity 68    
Maximum Humidity 87    
Minimum Humidity 48    
Precipitation  
Precipitation 0.00 in - - ()
Sea Level Pressure  
Sea Level Pressure 30.11 in    
Wind  
Wind Speed 1 mph (West)    
Max Wind Speed 8 mph    
Max Gust Speed 16 mph    
Visibility 10 miles    
Events      
Averages and records for this station are not official NWS values.
T = Trace of Precipitation, MM = Missing Value Source: NWS Daily Summary

Daily Weather History Graph

Daily Weather History Graph

Search for Another Location

Airport or City:

Trip Planner

Search our weather history database for the weather conditions in past years. The results will help you decide how hot, cold, wet, or windy it might be!

Date:

Astronomy

Feb. 05, 2012 Rise Set
Actual Time 6:59 AM EST 4:58 PM EST
Civil Twilight 6:28 AM EST 5:29 PM EST
Nautical Twilight 5:53 AM EST 6:04 PM EST
Astronomical Twilight 5:19 AM EST 6:38 PM EST
Moon 2:51 PM EST (2/5) 5:11 AM EST (2/5)
Length of Visible Light 11h 00m
Length of Day
9h 59m
Waxing Gibbous, 94% of the Moon is Illuminated
Feb 5
Waxing Gibbous
Feb 7
Full
Feb 14
Last Quarter
Feb 21
New
Feb 29
First Quarter

Hourly Weather History & Observations

Time (EST) Temp. Windchill Dew Point Humidity Pressure Visibility Wind Dir Wind Speed Gust Speed Precip Events Conditions
12:52 AM -7.1 °F - -13.0 °F 75% 30.19 in 10.0 mi Calm Calm - N/A   Clear
1:52 AM -9.0 °F - -13.0 °F 83% 30.19 in 10.0 mi Calm Calm - N/A   Clear
2:52 AM -7.1 °F - -14.1 °F 72% 30.19 in 10.0 mi Calm Calm - N/A   Clear
3:52 AM -9.9 °F - -16.1 °F 74% 30.19 in 10.0 mi Calm Calm - N/A   Clear
4:52 AM -11.9 °F - -18.0 °F 74% 30.19 in 10.0 mi Calm Calm - N/A   Clear
6:52 AM -14.1 °F - -18.9 °F 79% 30.21 in 10.0 mi Calm Calm - N/A   Clear
7:52 AM -11.9 °F - -17.0 °F 78% 30.22 in 5.0 mi Calm Calm - N/A   Haze
8:52 AM -2.9 °F - -6.0 °F 87% 30.21 in 10.0 mi Calm Calm - N/A   Clear
9:52 AM 7.0 °F - 1.9 °F 80% 30.19 in 9.0 mi Calm Calm - N/A   Clear
10:52 AM 19.0 °F - 7.0 °F 59% 30.17 in 10.0 mi Calm Calm - N/A   Clear
11:52 AM 23.0 °F 17.0 °F 7.0 °F 50% 30.13 in 10.0 mi Variable 4.6 mph - N/A   Clear
12:52 PM 24.1 °F 17.0 °F 7.0 °F 48% 30.10 in 10.0 mi West 5.8 mph - N/A   Clear
1:52 PM 25.0 °F 16.3 °F 8.1 °F 49% 30.09 in 10.0 mi West 8.1 mph 16.1 mph N/A   Clear
2:52 PM 25.0 °F 19.3 °F 8.1 °F 49% 30.07 in 10.0 mi Variable 4.6 mph - N/A   Clear
3:52 PM 26.1 °F 19.4 °F 9.0 °F 49% 30.07 in 10.0 mi West 5.8 mph - N/A   Clear
4:52 PM 23.0 °F 15.8 °F 9.0 °F 55% 30.09 in 10.0 mi WNW 5.8 mph - N/A   Clear
5:52 PM 23.0 °F - 10.0 °F 58% 30.09 in 10.0 mi Calm Calm - N/A   Overcast
6:52 PM 19.9 °F - 10.0 °F 65% 30.09 in 10.0 mi Calm Calm - N/A   Overcast
7:52 PM 18.0 °F - 10.0 °F 71% 30.09 in 10.0 mi Calm Calm - N/A   Overcast
8:33 PM 19.4 °F - 10.4 °F 68% 29.99 in 10.0 mi Calm Calm - N/A   Overcast
8:52 PM 19.9 °F - 12.0 °F 71% 30.07 in 10.0 mi Calm Calm - N/A   Overcast
9:52 PM 19.9 °F - 12.0 °F 71% 30.03 in 10.0 mi Calm Calm - N/A   Overcast
10:06 PM 19.4 °F - 12.2 °F 74% 29.94 in 10.0 mi Calm Calm - N/A   Overcast
10:52 PM 18.0 °F - 12.0 °F 78% 30.00 in 10.0 mi Calm Calm - N/A   Mostly Cloudy
11:32 PM 24.8 °F 19.1 °F 14.0 °F 64% 29.92 in 10.0 mi West 4.6 mph - N/A   Mostly Cloudy
11:40 PM 24.8 °F 17.9 °F 15.8 °F 69% 29.92 in 10.0 mi Variable 5.8 mph - N/A   Mostly Cloudy